Location: Normandy Village
(37.8755°N, 122.2655°W)
Time: 09:47:42
(UTC+00:00)

BREEZE-M DEB (TANK) - Pass Details

Date: 22 September 2019
Orbit: 308 x 15444 km, 49.5° (Epoch: 17 October)

Event Time Altitude Azimuth Distance (km) Brightness Sun altitude
Rises 13:24:51 0° 233° (SW) 7,509 7.5 -7.1°
Reaches altitude 10° 13:31:53 10° 235° (SW) 4,613 6.5 -5.7°
Maximum altitude 13:41:01 80° 322° (NW) 733 2.9 -3.9°
Drops below altitude 10° 13:44:02 10° 51° (NE) 1,581 5.6 -3.3°
Sets 13:45:22 0° 53° (NE) 2,232 6.5 -3.1°
